Prague, Czech Republic

1:46 AM CET on December 05, 2016 (GMT +0100)
Ruzyne

Weather History for LKPR - December, 2012

Change the Weather History Date:

Saturday, December 15, 2012

  Actual Average Record
Temperature  
Mean Temperature 26 °F -  
Max Temperature 35 °F 34 °F 51 °F (2006)
Min Temperature 17 °F 24 °F 10 °F (2010)
Degree Days  
Heating Degree Days 39    
Moisture  
Dew Point 28 °F    
Average Humidity 92    
Maximum Humidity 100    
Minimum Humidity 86    
Precipitation  
Precipitation 0.08 in 0.03 in - ()
Sea Level Pressure  
Sea Level Pressure 29.72 in    
Wind  
Wind Speed 4 mph ()    
Max Wind Speed 14 mph    
Max Gust Speed -    
Visibility 3.1 miles    
Events Rain    
Averages and records for this station are not official NWS values.
T = Trace of Precipitation, MM = Missing Value Source: Averaged Metar Reports

Daily Weather History Graph

Daily Weather History Graph

Search for Another Location

Airport or City:

Trip Planner

Search our weather history database for the weather conditions in past years. The results will help you decide how hot, cold, wet, or windy it might be!

Date:

Astronomy

Dec. 15, 2012 Rise Set
Actual Time 7:55 AM CET 4:00 PM CET
Civil Twilight 7:17 AM CET 4:39 PM CET
Nautical Twilight 6:35 AM CET 5:21 PM CET
Astronomical Twilight 5:55 AM CET 6:00 PM CET
Moon 9:25 AM CET (12/15) 6:55 PM CET (12/15)
Length of Visible Light 9h 22m
Length of Day
8h 05m
Waxing Crescent, 7% of the Moon is Illuminated
Dec 15
Waxing Crescent
Dec 20
First Quarter
Dec 28
Full
Jan 5
Last Quarter
Jan 11
New

Hourly Weather History & Observations

Time (CET) Temp. Windchill Dew Point Humidity Pressure Visibility Wind Dir Wind Speed Gust Speed Precip Events Conditions
12:00 AM 19.4 °F 14.3 °F 15.8 °F 86% 29.71 in 3.7 mi SSW 3.5 mph - N/A   Unknown
12:30 AM 19.4 °F 14.3 °F 17.6 °F 93% 29.71 in 3.7 mi SSE 3.5 mph - N/A   Unknown
1:00 AM 22 °F - 20 °F 87% 29.79 in 4 mi ESE 4.5 mph - -   Mist
1:00 AM 23.0 °F 18.4 °F 19.4 °F 86% 29.68 in 3.7 mi SE 3.5 mph - N/A   Unknown
1:30 AM 23.0 °F 18.4 °F 19.4 °F 86% 29.68 in 3.7 mi SE 3.5 mph - N/A   Unknown
2:00 AM 23.0 °F - 21.2 °F 93% 29.68 in 3.7 mi Variable 2.3 mph - N/A   Unknown
2:30 AM 24.8 °F - 23.0 °F 93% 29.71 in 3.7 mi Variable 1.2 mph - N/A   Unknown
3:00 AM 24.8 °F - 23.0 °F 93% 29.71 in 3.7 mi Variable 2.3 mph - N/A Rain Light Freezing Rain
3:30 AM 26.6 °F 21.2 °F 24.8 °F 93% 29.68 in 4.3 mi ESE 4.6 mph - N/A Rain Light Freezing Rain
4:00 AM 26.6 °F 22.6 °F 24.8 °F 93% 29.68 in 4.3 mi Variable 3.5 mph - N/A Rain Light Freezing Rain
4:30 AM 26.6 °F - 24.8 °F 93% 29.68 in 4.3 mi Variable 2.3 mph - N/A Rain Light Freezing Rain
5:00 AM 26.6 °F - 24.8 °F 93% 29.68 in 4.3 mi Variable 1.2 mph - N/A Rain Light Freezing Rain
5:30 AM 26.6 °F - 24.8 °F 93% 29.68 in 3.7 mi Variable 2.3 mph - N/A Rain Light Freezing Rain
6:00 AM 28.4 °F 22.2 °F 24.8 °F 86% 29.65 in 3.1 mi East 5.8 mph - N/A Rain Light Freezing Rain
6:30 AM 28.4 °F 23.3 °F 24.8 °F 86% 29.68 in 3.1 mi ESE 4.6 mph - N/A Rain Light Freezing Rain
7:00 AM 28 °F - 26 °F 86% 29.75 in 2 mi ESE 6.7 mph - -   Light Freezing Rain
7:00 AM 28.4 °F 22.2 °F 24.8 °F 86% 29.65 in 2.5 mi East 5.8 mph - N/A Rain Light Freezing Rain
7:30 AM 28.4 °F 22.2 °F 26.6 °F 93% 29.65 in 2.5 mi East 5.8 mph - N/A Rain Light Freezing Rain
8:00 AM 28.4 °F - 26.6 °F 93% 29.65 in - ESE 2.3 mph - N/A Rain Light Freezing Rain
8:30 AM 28.4 °F 24.6 °F 26.6 °F 93% 29.68 in 2.2 mi Variable 3.5 mph - N/A Rain Light Freezing Rain
9:00 AM 30.2 °F - 26.6 °F 86% 29.68 in 2.2 mi Variable 1.2 mph - N/A Rain Light Freezing Rain
9:24 AM 30.2 °F - 26.6 °F 86% 29.71 in 1.7 mi Variable 2.3 mph - N/A Rain Light Freezing Rain
9:30 AM 30.2 °F - 28.4 °F 93% 29.71 in 1.7 mi Variable 2.3 mph - N/A Rain Light Freezing Rain
10:00 AM 30.2 °F - 28.4 °F 93% 29.71 in - Variable 1.2 mph - N/A Rain Light Freezing Rain
10:30 AM 30.2 °F - 28.4 °F 93% 29.71 in 1.9 mi Variable 2.3 mph - N/A Rain Light Freezing Rain
11:00 AM 30.2 °F - 28.4 °F 93% 29.71 in - Variable 2.3 mph - N/A Rain Light Freezing Rain
11:30 AM 30.2 °F - 28.4 °F 93% 29.71 in - SSW 2.3 mph - N/A Rain Light Freezing Rain
12:00 PM 30.2 °F - 28.4 °F 93% 29.71 in - Variable 2.3 mph - N/A Rain Light Freezing Rain
12:30 PM 30.2 °F 26.7 °F 28.4 °F 93% 29.71 in 2.8 mi West 3.5 mph - N/A   Overcast
1:00 PM 31 °F - 29 °F 88% 29.78 in 3 mi SSW 2.2 mph - - Rain Light Freezing Drizzle
1:00 PM 32.0 °F - 28.4 °F 87% 29.71 in - Variable 2.3 mph - N/A   Overcast
1:30 PM 32.0 °F - 30.2 °F 93% 29.71 in - Variable 1.2 mph - N/A   Overcast
2:00 PM 32.0 °F 27.5 °F 30.2 °F 93% 29.71 in 2.2 mi SSE 4.6 mph - N/A   Overcast
2:30 PM 32.0 °F - 30.2 °F 93% 29.71 in 2.2 mi Variable 2.3 mph - N/A   Overcast
3:00 PM 32.0 °F 24.8 °F 30.2 °F 93% 29.71 in 2.2 mi South 8.1 mph - N/A   Mostly Cloudy
3:30 PM 32.0 °F - 30.2 °F 93% 29.71 in - Variable 2.3 mph - N/A   Partly Cloudy
4:00 PM 32.0 °F 28.7 °F 30.2 °F 93% 29.71 in - South 3.5 mph - N/A   Partly Cloudy
4:30 PM 32.0 °F - 30.2 °F 93% 29.74 in - Variable 2.3 mph - N/A   Mist
5:00 PM 32.0 °F - 30.2 °F 93% 29.74 in 2.8 mi Variable 2.3 mph - N/A   Partly Cloudy
5:30 PM 33.8 °F 25.8 °F 32.0 °F 93% 29.74 in 3.1 mi SSW 10.4 mph - N/A   Scattered Clouds
6:00 PM 33.8 °F 25.8 °F 32.0 °F 93% 29.74 in 3.7 mi SSW 10.4 mph - N/A   Mostly Cloudy
6:30 PM 33.8 °F 24.8 °F 32.0 °F 93% 29.74 in 3.7 mi SSW 12.7 mph - N/A   Partly Cloudy
7:00 PM 35 °F - 33 °F 92% 29.82 in 4 mi SW 13.4 mph - -   Mist
7:00 PM 35.6 °F 26.6 °F 33.8 °F 93% 29.77 in 4.3 mi SSW 13.8 mph - N/A   Mostly Cloudy
7:30 PM 33.8 °F 24.8 °F 33.8 °F 100% 29.74 in 3.7 mi SSW 12.7 mph - N/A   Scattered Clouds
8:00 PM 33.8 °F 25.8 °F 32.0 °F 93% 29.77 in 2.8 mi SW 10.4 mph - N/A   Mostly Cloudy
8:30 PM 33.8 °F 26.4 °F 32.0 °F 93% 29.77 in 2.8 mi SW 9.2 mph - N/A   Mostly Cloudy
9:00 PM 33.8 °F 27.0 °F 33.8 °F 100% 29.77 in 2.8 mi SSW 8.1 mph - N/A   Mostly Cloudy
9:30 PM 35.6 °F 26.6 °F 33.8 °F 93% 29.77 in 2.8 mi SSW 13.8 mph - N/A   Mostly Cloudy
10:00 PM 33.8 °F 25.8 °F 32.0 °F 93% 29.77 in 3.1 mi SSW 10.4 mph - N/A   Mostly Cloudy
10:30 PM 33.8 °F 30.8 °F 32.0 °F 93% 29.77 in 2.8 mi SSW 3.5 mph - N/A   Overcast
11:00 PM 35.6 °F 30.7 °F 33.8 °F 93% 29.80 in 3.1 mi SW 5.8 mph - N/A   Mostly Cloudy
11:30 PM 35.6 °F 29.9 °F 33.8 °F 93% 29.80 in 3.7 mi SSW 6.9 mph - N/A   Mostly Cloudy